[[{"header":{"parameterUnit":"m.s-1","parameterCategory":1,"la1":30.2991,"la2":30.254,"lo1":-89.0895,"lo2":-89.0444,"dy":0.0017,"dx":0.0017,"nx":28,"ny":28,"refTime":"2023-11-13T09:00:00:Z","depth":0,"parameterNumber":2,"parameterNumberName":"U-component_of_WINDS"},"data":[0,0,0,0,0,0,0,0,0,0,0,0,0,0,0,0,0,0,0,0,0,0,0,0,0,0,0,0,0,0,0,0,0,0,0,0,0,0,0,0,0,0,0,0,0,0,0,0,0,0,0,0,0,0,0,0,0,0,-4.7417,-4.7417,0,-4.7419,-4.7419,-4.7419,-4.7272,-4.7268,-4.7265,-4.7261,-4.7265,-4.7269,-4.7272,0,0,0,0,0,0,0,0,0,0,0,0,0,-4.7287,-4.729,-4.7417,-4.7417,-4.7417,-4.7419,-4.7419,-4.7419,-4.7273,-4.7268,-4.7264,-4.7259,-4.7264,-4.7268,-4.7273,0,0,0,0,0,0,0,0,0,0,0,0,0,-4.7322,-4.7291,-4.7417,-4.7344,-4.7338,-4.7419,-4.7419,-4.7419,-4.7274,-4.7268,-4.7262,-4.7257,-4.7262,-4.7268,-4.7273,-4.7425,0,0,-4.7291,-4.7293,0,0,0,0,0,0,0,0,-4.732,-4.7327,-4.7355,-4.735,-4.7342,-4.7339,-4.7375,-4.7421,-4.7275,-4.7298,-4.7261,-4.7254,-4.7295,-4.7297,-4.7311,-4.7425,-4.7425,-4.7291,-4.7294,-4.7297,-4.7298,0,0,0,0,0,0,0,-4.7318,-4.7326,-4.7418,-4.7356,-4.7348,-4.7312,-4.731,-4.7383,-4.7329,-4.7296,-4.7285,-4.7287,-4.729,-4.7306,-4.731,-4.7425,-4.7291,-4.7296,-4.7299,-4.7302,-4.7665,-4.767,0,0,0,0,0,0,-4.7325,-4.7325,-4.7418,-4.7418,-4.7317,-4.7319,-4.7317,-4.7346,-4.7328,-4.732,-4.7292,-4.7281,-4.7299,-4.7303,-4.7309,-4.7486,-4.7297,-4.7302,-4.7305,-4.7658,-4.7666,-4.7673,0,0,0,0,0,0,-4.7323,-4.7335,-4.7418,-4.7369,-4.7376,-4.7327,-4.7361,-4.735,-4.7365,-4.7325,-4.7315,-4.7318,-4.7294,-4.7301,-4.7397,-4.7484,-4.7305,-4.731,-4.7651,-4.7661,-4.7669,-4.7841,0,0,0,0,0,0,-4.732,-4.7335,-4.7392,-4.7371,-4.738,-4.7506,-4.7367,-4.7354,-4.7375,-4.7359,-4.7347,-4.7339,-4.729,-4.739,-4.7403,-4.7489,-4.7314,-4.7643,-4.7655,-4.7666,-4.7828,-4.7855,-4.7879,0,0,0,0,0,-4.7316,-4.7441,-4.7396,-4.7408,-4.745,-4.7511,-4.7516,-4.7457,-4.7382,-4.7439,-4.7414,-4.734,-4.7472,-4.7401,-4.7414,-4.7503,-4.7637,-4.7652,-4.7665,-4.7816,-4.785,-4.7879,0,0,0,0,0,0,-4.7475,-4.7437,-4.7387,-4.7508,-4.7514,-4.7486,-4.7557,-4.7495,-4.7523,-4.7507,-4.7432,-4.7431,-4.7539,-4.753,-4.7451,-4.7649,-4.7541,-4.7559,-4.7651,-4.7683,-4.7708,-4.7709,-4.7319,0,0,0,0,0,-4.7524,-4.7577,-4.7541,-4.7652,-4.7657,-4.7607,-4.7631,-4.7585,-4.7588,-4.759,-4.7572,-4.7578,-4.7621,-4.7651,-4.7688,-4.7825,-4.782,-4.7892,-4.7918,-4.7939,-4.7956,-4.8028,-4.806,-4.7719,-4.7719,-4.7719,0,0,-4.7626,-4.7612,-4.765,-4.7683,-4.7682,-4.7739,-4.761,-4.7675,-4.7717,-4.76,-4.769,-4.7677,-4.7679,-4.7796,-4.7846,-4.7792,-4.8049,-4.7957,-4.7975,-4.798,-4.8046,-4.8078,-4.8107,-4.7729,-4.7727,-4.7725,0,0,-4.7842,-4.7836,-4.7928,-4.7929,-4.7929,-4.7895,-4.7917,-4.7898,-4.7885,-4.7973,-4.7887,-4.7935,-4.801,-4.8016,-4.8028,-4.8245,-4.8178,-4.8259,-4.8394,-4.8465,-4.8492,-4.8516,-4.8594,-4.8623,-4.8275,-4.8276,-4.8276,0,-4.797,-4.8051,-4.7983,-4.8055,-4.8072,-4.7968,-4.8061,-4.8065,-4.8078,-4.8092,-4.803,-4.8123,-4.8117,-4.8234,-4.8286,-4.83,-4.8323,-4.8261,-4.8494,-4.8517,-4.8538,-4.8612,-4.8641,-4.8286,-4.8284,-4.8283,-4.8282,0,-4.8209,-4.8267,-4.8341,-4.8355,-4.838,-4.8462,-4.8407,-4.8441,-4.8392,-4.8364,-4.8456,-4.8444,-4.8478,-4.8502,-4.8455,-4.8612,-4.8579,-4.8506,-4.8397,-4.8581,-4.865,-4.8677,-4.83,-4.8296,-4.8293,-4.8291,0,0,-4.8527,-4.8501,-4.853,-4.8535,-4.8526,-4.857,-4.8647,-4.8678,-4.871,-4.8721,-4.8785,-4.885,-4.8783,-4.8797,-4.875,-4.8812,-4.8985,-4.8732,-4.8731,-4.8781,-4.916,-4.9216,-4.925,-4.894,-4.8945,-4.8949,-4.916,0,-4.8738,-4.8868,-4.8808,-4.8945,-4.8998,-4.8898,-4.8965,-4.8968,-4.8943,-4.8985,-4.8957,-4.9006,-4.8913,-4.8921,-4.8978,-4.8953,-4.9061,-4.8936,-4.9,-4.9003,-4.9004,-4.9285,-4.9344,-4.9544,-4.9186,-4.9191,-4.9194,0,-4.9001,-4.9023,-4.9165,-4.9146,-4.9166,-4.9228,-4.9252,-4.9292,-4.9293,-4.9271,-4.9287,-4.9224,-4.9299,-4.9189,-4.9291,-4.9207,-4.9229,-4.9221,-4.9227,-4.9232,-4.9111,-4.93,-4.9606,-4.9637,-4.9235,-4.9232,-4.9229,0,-4.9221,-4.9286,-4.9379,-4.9386,-4.9367,-4.9412,-4.9406,-4.94,-4.9423,-4.9444,-4.9458,-4.9488,-4.9505,-4.953,-4.9477,-4.9402,-4.9587,-4.9472,-4.9572,-4.9574,-4.9618,-4.9616,-4.9934,-4.9629,-4.9628,-4.9628,-4.9627,0,-4.9464,-4.9555,-4.9478,-4.9536,-4.9635,-4.9565,-4.9665,-4.9648,-4.9644,-4.9697,-4.9612,-4.9664,-4.959,-4.9635,-4.9594,-4.9686,-4.9693,-4.9678,-4.9667,-4.9687,-4.969,-4.9702,-4.9688,-4.9636,-4.9634,-4.9632,-4.9631,0,-4.9728,-4.9679,-4.9775,-4.9748,-4.9743,-4.9817,-4.9794,-4.9847,-4.9815,-4.9884,-4.9895,-4.9847,-4.9895,-4.9845,-4.9889,-4.9862,-4.9985,-4.9952,-4.9986,-4.9977,-5.008,-5.0072,-5.0419,-5.0462,-5.0128,-5.0131,-5.0134,0,-4.9887,-4.9955,-4.9934,-4.9963,-4.9962,-5.001,-5.0032,-4.9966,-4.9993,-4.9998,-5.005,-5.009,-5.0119,-5.0201,-5.017,-5.0204,-5.0172,-5.0292,-5.0177,-5.0196,-5.0176,-5.0174,-5.0181,-5.0316,-5.032,-5.0323,-5.0326,0,-5.0175,-5.0147,-5.0183,-5.021,-5.0239,-5.0258,-5.027,-5.0298,-5.0229,-5.0264,-5.0311,-5.0334,-5.0379,-5.0421,-5.0445,-5.0438,-5.0372,-5.0362,-5.0387,-5.041,-5.0427,-5.042,-5.0051,-5.0355,-5.0352,-5.035,-5.0348,-5.0347,-5.0392,-5.0448,-5.0442,-5.0485,-5.0486,-5.0499,-5.0547,-5.0521,-5.056,-5.0591,-5.0548,-5.0608,-5.0606,-5.0631,-5.0633,-5.0679,-5.0628,-5.0664,-5.0674,-5.0684,-5.07,-5.0418,-5.0682,-5.0682,-5.0681,-5.068,-5.0679,0,-5.0678,-5.0668,-5.0708,-5.0727,-5.076,-5.0692,-5.0701,-5.0734,-5.0787,-5.079,-5.082,-5.0875,-5.0915,-5.0887,-5.092,-5.0962,-5.0933,-5.0974,-5.0971,-5.0971,-5.0743,-5.0718,-5.0997,-5.0997,-5.0997,-5.0997,-5.0997,-5.0997,-5.083,-5.0921,-5.0893,-5.0983,-5.0973,-5.103,-5.1041,-5.1053,-5.1055,-5.112,-5.1152,-5.1133,-5.1124,-5.1155,-5.1189,-5.118,-5.1197,-5.125,-5.123,-5.1018,-5.0987,-5.0957,-5.0934,-5.1253,-5.1254,-5.1454,-5.1456,-5.1457]},{"header":{"parameterUnit":"m.s-1","parameterCategory":1,"la1":30.2991,"la2":30.254,"lo1":-89.0895,"lo2":-89.0444,"dy":0.0017,"dx":0.0017,"nx":28,"ny":28,"refTime":"2023-11-13T09:00:00:Z","depth":0,"parameterNumber":3,"parameterNumberName":"V-component_of_WINDS"},"data":[0,0,0,0,0,0,0,0,0,0,0,0,0,0,0,0,0,0,0,0,0,0,0,0,0,0,0,0,0,0,0,0,0,0,0,0,0,0,0,0,0,0,0,0,0,0,0,0,0,0,0,0,0,0,0,0,0,0,-4.7561,-4.7561,0,-4.7574,-4.7574,-4.7574,-4.7502,-4.75,-4.7498,-4.7496,-4.7509,-4.7511,-4.7513,0,0,0,0,0,0,0,0,0,0,0,0,0,-4.7472,-4.7474,-4.7561,-4.7561,-4.7561,-4.7574,-4.7574,-4.7574,-4.7503,-4.75,-4.7498,-4.7495,-4.7508,-4.7511,-4.7514,0,0,0,0,0,0,0,0,0,0,0,0,0,-4.7501,-4.7475,-4.7561,-4.7527,-4.7524,-4.7574,-4.7574,-4.7574,-4.7503,-4.75,-4.7497,-4.7494,-4.7507,-4.7511,-4.7514,-4.7597,0,0,-4.7524,-4.7526,0,0,0,0,0,0,0,0,-4.7499,-4.7504,-4.7532,-4.753,-4.7526,-4.7533,-4.7547,-4.7582,-4.7504,-4.7511,-4.7496,-4.7493,-4.752,-4.7522,-4.7531,-4.7597,-4.7598,-4.7525,-4.7527,-4.7528,-4.7529,0,0,0,0,0,0,0,-4.7497,-4.7503,-4.7566,-4.7532,-4.7529,-4.7511,-4.7511,-4.7554,-4.7533,-4.751,-4.7505,-4.7508,-4.7517,-4.7528,-4.7531,-4.7598,-4.7525,-4.7528,-4.753,-4.7531,-4.773,-4.7733,0,0,0,0,0,0,-4.75,-4.7502,-4.7566,-4.7567,-4.7505,-4.7515,-4.7515,-4.7534,-4.7532,-4.7529,-4.751,-4.7504,-4.7524,-4.7527,-4.7531,-4.7626,-4.7528,-4.7531,-4.7533,-4.7727,-4.7731,-4.7735,0,0,0,0,0,0,-4.7498,-4.7506,-4.7565,-4.7533,-4.7539,-4.752,-4.7541,-4.7536,-4.7546,-4.7532,-4.7528,-4.7525,-4.7521,-4.7526,-4.758,-4.7625,-4.7533,-4.7536,-4.7723,-4.7728,-4.7733,-4.7818,0,0,0,0,0,0,-4.7496,-4.7506,-4.7538,-4.7534,-4.7541,-4.7615,-4.7544,-4.7539,-4.7553,-4.7545,-4.7544,-4.7541,-4.7519,-4.7576,-4.7584,-4.7628,-4.7539,-4.7719,-4.7725,-4.7731,-4.7811,-4.7825,-4.7837,0,0,0,0,0,-4.7493,-4.7562,-4.754,-4.7548,-4.758,-4.7618,-4.7622,-4.7595,-4.7557,-4.7588,-4.7578,-4.7541,-4.7619,-4.7582,-4.759,-4.7637,-4.7716,-4.7724,-4.7731,-4.7805,-4.7822,-4.7837,0,0,0,0,0,0,-4.7572,-4.7561,-4.7537,-4.7606,-4.7614,-4.7606,-4.7645,-4.7615,-4.7633,-4.7625,-4.7591,-4.7591,-4.7651,-4.7649,-4.7608,-4.7715,-4.7661,-4.767,-4.7714,-4.773,-4.7743,-4.7742,-4.7541,0,0,0,0,0,-4.7598,-4.763,-4.7618,-4.768,-4.7685,-4.7665,-4.768,-4.7659,-4.7665,-4.7668,-4.7662,-4.7669,-4.7695,-4.7713,-4.7736,-4.781,-4.7808,-4.7846,-4.7859,-4.787,-4.7878,-4.7915,-4.7932,-4.7759,-4.7759,-4.7758,0,0,-4.7651,-4.7648,-4.7671,-4.7696,-4.7699,-4.7732,-4.7668,-4.7706,-4.773,-4.7673,-4.7724,-4.772,-4.7726,-4.779,-4.7818,-4.779,-4.7926,-4.7879,-4.7888,-4.789,-4.7925,-4.7941,-4.7956,-4.7764,-4.7763,-4.7762,0,0,-4.7764,-4.7766,-4.7817,-4.7822,-4.7827,-4.7812,-4.7825,-4.7821,-4.7816,-4.7867,-4.7824,-4.7852,-4.7898,-4.7903,-4.7911,-4.8025,-4.7991,-4.8033,-4.8101,-4.8138,-4.8152,-4.8163,-4.8202,-4.8217,-4.8042,-4.8042,-4.8042,0,-4.7829,-4.7878,-4.7848,-4.7888,-4.7899,-4.785,-4.79,-4.7906,-4.7919,-4.7928,-4.7897,-4.7951,-4.7952,-4.8016,-4.8043,-4.8052,-4.8064,-4.8033,-4.8152,-4.8164,-4.8174,-4.8211,-4.8226,-4.8047,-4.8046,-4.8046,-4.8045,0,-4.7956,-4.7991,-4.8031,-4.8044,-4.806,-4.8106,-4.8082,-4.8102,-4.8078,-4.8067,-4.8117,-4.8116,-4.8137,-4.8151,-4.8129,-4.8211,-4.8193,-4.8158,-4.8102,-4.8196,-4.823,-4.8244,-4.8054,-4.8052,-4.8051,-4.8049,0,0,-4.8121,-4.8115,-4.813,-4.8134,-4.8136,-4.8161,-4.8204,-4.8224,-4.8241,-4.8251,-4.8285,-4.8324,-4.8291,-4.8301,-4.8279,-4.8311,-4.8399,-4.8271,-4.8271,-4.8294,-4.8487,-4.8513,-4.853,-4.8377,-4.8379,-4.8381,-4.8486,0,-4.823,-4.8302,-4.8275,-4.8349,-4.8379,-4.8331,-4.8368,-4.8373,-4.8363,-4.8386,-4.8375,-4.8403,-4.8357,-4.8363,-4.8393,-4.8382,-4.8437,-4.8374,-4.8407,-4.8409,-4.8406,-4.8548,-4.8576,-4.8675,-4.8499,-4.8502,-4.8503,0,-4.8367,-4.8382,-4.8459,-4.8453,-4.8464,-4.8498,-4.8513,-4.8537,-4.854,-4.8531,-4.8541,-4.8512,-4.8552,-4.8497,-4.8551,-4.8509,-4.8521,-4.8518,-4.8521,-4.8522,-4.8461,-4.8552,-4.8706,-4.872,-4.8524,-4.8522,-4.8521,0,-4.8477,-4.8516,-4.8566,-4.8572,-4.8567,-4.8591,-4.859,-4.8591,-4.8604,-4.8617,-4.8625,-4.8644,-4.8653,-4.8668,-4.8644,-4.8606,-4.8701,-4.8644,-4.8693,-4.8694,-4.8714,-4.8713,-4.8871,-4.8725,-4.8724,-4.8724,-4.8724,0,-4.8601,-4.865,-4.8615,-4.8646,-4.8698,-4.8667,-4.8719,-4.8713,-4.8714,-4.8742,-4.8702,-4.8729,-4.8696,-4.872,-4.8702,-4.8748,-4.8753,-4.8746,-4.874,-4.8749,-4.875,-4.8755,-4.8747,-4.8728,-4.8727,-4.8726,-4.8726,0,-4.8733,-4.8712,-4.8763,-4.8754,-4.8752,-4.8791,-4.8783,-4.881,-4.8797,-4.8833,-4.884,-4.8819,-4.8845,-4.8822,-4.8848,-4.8835,-4.8897,-4.8882,-4.8896,-4.8891,-4.894,-4.8935,-4.9106,-4.9127,-4.8968,-4.897,-4.8971,0,-4.8813,-4.8848,-4.8842,-4.8858,-4.8859,-4.8886,-4.8898,-4.8868,-4.8883,-4.8889,-4.8916,-4.8938,-4.8954,-4.8998,-4.8985,-4.9003,-4.8988,-4.9046,-4.899,-4.8997,-4.8987,-4.8984,-4.8987,-4.9057,-4.9059,-4.9061,-4.9062,0,-4.8956,-4.8944,-4.8964,-4.898,-4.8996,-4.9007,-4.9016,-4.9031,-4.9,-4.9018,-4.9044,-4.9056,-4.9081,-4.9103,-4.9118,-4.9116,-4.9084,-4.908,-4.9092,-4.91,-4.9106,-4.9102,-4.8925,-4.9076,-4.9075,-4.9074,-4.9073,-4.9072,-4.9063,-4.9092,-4.9092,-4.9115,-4.9117,-4.9125,-4.915,-4.914,-4.916,-4.9178,-4.9159,-4.919,-4.9191,-4.9206,-4.9208,-4.9231,-4.9207,-4.9225,-4.9229,-4.9233,-4.924,-4.9103,-4.9234,-4.9234,-4.9233,-4.9233,-4.9233,0,-4.9203,-4.92,-4.9222,-4.9234,-4.9251,-4.9219,-4.9226,-4.9243,-4.927,-4.9274,-4.929,-4.9319,-4.934,-4.9328,-4.9346,-4.9367,-4.9352,-4.9372,-4.937,-4.937,-4.9262,-4.9249,-4.9383,-4.9383,-4.9383,-4.9383,-4.9383,-4.9383,-4.9278,-4.9324,-4.9312,-4.9358,-4.9355,-4.9384,-4.939,-4.9397,-4.9399,-4.9433,-4.945,-4.9442,-4.9439,-4.9456,-4.9474,-4.9469,-4.9477,-4.9503,-4.9493,-4.9392,-4.9377,-4.9363,-4.9351,-4.9505,-4.9505,-4.9599,-4.96,-4.96]}]]